Weather observations for the past three days for
St. Mary's, St. Mary's Airport
Imperial (Metric)
Date Time (akdt) Wind (mph) Vis. (mi.) Weather Sky Cond. Temperature (ºF) Relative Humidity Wind Chill (°F) Heat Index (°F) Pressure Precipitation (in)
Air Dwpt 6 hour altimeter (in) sea level (mb) 1 hr 3 hr 6 hr
Max. Min.
05 12:56 NW 15 G 22 10.00 Mostly Cloudy BKN013 28.9 24.1 82% 18 29.96 1015.4
05 11:56 N 16 10.00 Overcast OVC011 28.9 23 78% 18 29.95 1015.1
05 10:56 NW 16 10.00 Overcast OVC007 26.1 23 88% 14 29.94 1014.9
05 09:56 NW 16 10.00 Overcast OVC003 25 24.1 25 23 96% 13 29.94 1014.8
05 08:56 N 16 10.00 Overcast OVC003 24.1 24.1 100% 12 29.92 1014.4
05 07:56 N 17 10.00 Overcast OVC003 24.1 24.1 100% 11 29.91 1013.9
05 06:56 N 17 10.00 Mostly Cloudy BKN005 23 23 100% 10 29.89 1013.2
05 05:56 NW 16 10.00 Fair CLR 23 23 100% 11 29.88 1012.8
05 04:56 NW 15 10.00 Fair CLR 24.1 24.1 100% 12 29.87 1012.5
05 03:56 N 16 10.00 Fair CLR 24.1 24.1 30 24.1 100% 12 29.87 1012.5
05 02:56 N 16 10.00 Fair CLR 25 24.1 96% 13 29.87 1012.4
05 01:56 N 17 10.00 Fair CLR 26.1 24.1 92% 14 29.87 1012.3
05 00:56 N 18 10.00 Fair CLR 27 25 92% 15 29.86 1012.2
04 23:56 N 18 10.00 Fair CLR 28 25 88% 16 29.86 1012.3
04 22:56 N 20 10.00 Partly Cloudy SCT013 28.9 25 85% 17 29.86 1012.3
04 21:56 N 25 10.00 Overcast and Breezy OVC015 30 26.1 32 30 85% 17 29.86 1012.3
04 20:56 N 24 10.00 Overcast and Breezy OVC013 30 25 82% 17 29.87 1012.4
04 19:56 N 24 G 32 10.00 Overcast and Breezy OVC019 30.9 25 79% 18 29.88 1012.9
04 18:56 N 24 G 35 10.00 Overcast and Breezy OVC019 30 24.1 79% 17 29.89 1013.0
04 17:56 N 24 G 33 10.00 Overcast and Breezy OVC021 32 25 75% 20 29.9 1013.5
04 16:56 N 21 G 32 10.00 Overcast and Breezy OVC021 32 23 69% 21 29.92 1014.1
04 15:56 N 23 G 33 10.00 Overcast and Breezy OVC021 32 23 33.1 30.9 69% 20 29.94 1014.8
04 14:56 N 23 G 29 10.00 Overcast and Breezy OVC023 33.1 23 66% 21 29.96 1015.6
04 13:56 N 23 G 30 10.00 Overcast and Breezy OVC023 32 23 69% 20 29.99 1016.4
04 12:56 N 22 10.00 Overcast and Breezy OVC025 32 24.1 73% 20 30 1016.9
04 11:56 N 22 G 26 10.00 Overcast and Breezy OVC025 32 21.9 66% 20 30.02 1017.6
04 10:56 N 21 G 25 10.00 Mostly Cloudy and Breezy BKN025 32 21.9 66% 21 30.03 1018.1
04 09:56 N 15 10.00 Mostly Cloudy SCT016 BKN028 30.9 25 30.9 21.9 79% 21 30.05 1018.6
04 08:56 N 13 10.00 A Few Clouds FEW022 28.9 23 78% 19 30.06 1018.9
04 07:56 N 10 10.00 Overcast OVC020 28 23 81% 19 30.07 1019.4
04 06:56 N 9 10.00 Overcast OVC018 27 24.1 89% 19 30.08 1019.6
04 05:56 NW 7 10.00 Overcast OVC020 25 25 100% 18 30.09 1019.8
04 03:56 NW 7 10.00 Fair CLR 23 21.9 32 23 96% 16 30.11 1020.5
04 02:56 NW 7 10.00 Mostly Cloudy BKN010 24.1 23 96% 17 30.11 1020.7
04 01:56 NW 7 10.00 Partly Cloudy SCT010 24.1 23 96% 17 30.12 1021.0
04 00:56 NW 9 10.00 A Few Clouds FEW010 26.1 25 96% 18 30.13 1021.2
03 23:56 NW 6 10.00 Fair CLR 27 21.9 81% 21 30.13 1021.1
03 22:56 N 7 10.00 Fair CLR 30 23 75% 24 30.12 1020.9
03 21:56 NW 8 10.00 A Few Clouds FEW025 30.9 23 33.1 30.9 72% 24 30.12 1020.9
03 20:56 NW 13 10.00 Overcast OVC023 32 25 75% 23 30.12 1021.1
03 19:56 NW 10 10.00 Overcast OVC021 32 24.1 73% 24 30.13 1021.2
03 18:56 NW 9 10.00 Overcast OVC019 32 25 75% 25 30.13 1021.2
03 17:56 W 12 10.00 Mostly Cloudy BKN017 33.1 26.1 75% 25 30.13 1021.3
03 16:56 W 9 10.00 Overcast OVC021 33.1 26.1 75% 26 30.14 1021.8
03 15:56 W 10 10.00 Overcast OVC021 33.1 25 35.1 27 72% 26 30.15 1022.0
03 14:56 W 7 10.00 Overcast OVC023 32 24.1 73% 26 30.15 1021.9
03 13:56 SW 7 10.00 Overcast OVC021 30.9 24.1 76% 25 30.15 1022.0
03 12:56 E 5 10.00 Mostly Cloudy BKN019 34 21.9 61% 30 30.15 1022.1
03 11:56 NW 7 10.00 Overcast OVC017 28.9 21.9 75% 23 30.15 1022.2
03 10:56 NW 5 10.00 Overcast OVC015 28 21 75% 24 30.15 1022.2
03 09:56 NW 3 10.00 Overcast OVC015 27 21 27 26.1 78% 30.15 1022.0
03 08:56 NW 3 10.00 Overcast OVC015 27 21 78% 30.14 1021.6
03 07:56 N 7 10.00 Overcast OVC015 26.1 21 81% 19 30.13 1021.3
03 06:56 N 7 10.00 Overcast OVC015 26.1 21 81% 19 30.12 1021.0
03 05:56 NW 8 10.00 Overcast OVC015 26.1 21 81% 18 30.11 1020.7
03 04:56 NW 7 10.00 Overcast OVC013 26.1 21.9 84% 19 30.1 1020.5
03 03:56 NW 7 10.00 Overcast OVC013 26.1 21.9 26.1 25 84% 19 30.1 1020.2
03 02:56 NW 7 10.00 Overcast OVC013 26.1 21.9 84% 19 30.09 1019.9
03 01:56 NW 9 10.00 Overcast OVC013 26.1 21.9 84% 18 30.07 1019.3
03 00:56 NW 10 10.00 Overcast OVC011 25 21.9 88% 16 30.05 1018.6
02 23:56 NW 14 10.00 Overcast OVC011 25 21.9 88% 14 30.03 1017.8
02 22:56 NW 13 10.00 Overcast OVC013 26.1 21 81% 16 30 1017.0
02 21:56 NW 13 10.00 Overcast OVC015 26.1 21.9 34 26.1 84% 16 29.98 1016.2
02 20:56 NW 16 10.00 Overcast OVC015 27 21.9 81% 16 29.96 1015.3
02 19:56 W 13 10.00 Overcast OVC017 28 23 81% 18 29.93 1014.7
02 18:56 W 15 G 21 10.00 Overcast OVC017 28.9 23 78% 18 29.9 1013.6
02 17:56 W 16 10.00 Overcast OVC017 30 24.1 79% 19 29.88 1012.8
02 16:56 W 15 10.00 Overcast BKN015 OVC031 33.1 26.1 75% 24 29.85 1011.8
02 15:56 W 13 10.00 Overcast OVC012 33.1 28 34 30 82% 25 29.82 1010.8 0.01
02 14:56 W 14 7.00 Light Snow BKN010 OVC015 33.1 28.9 85% 24 29.8 1010.0
02 13:56 NW 8 10.00 Unknown Precip OVC013 33.1 28 82% 27 29.77 1009.1
Date Time (akdt) Wind (mph) Vis. (mi.) Weather Sky Cond. Air Dwpt Max. Min. Relative Humidity Wind Chill (°F) Heat Index (°F) altimeter (in) sea level (mb) 1 hr 3 hr 6 hr
6 hour
Temperature (ºF) Pressure Precipitation (in)